Location: Four Corners
(38.2757°N, 122.4608°W)
Time: 07:51:32
(UTC+00:00)

RESURS DK-1 - Pass Details

Date: 08 December 2019
Orbit: 554 x 564 km, 69.9° (Epoch: 27 January)

Event Time Altitude Azimuth Distance (km) Brightness Sun altitude
Rises 02:06:12 0° 232° (SW) 2,720 7.3 -14.7°
Reaches altitude 10° 02:08:41 10° 246° (WSW) 1,831 6.4 -15.2°
Maximum altitude 02:12:04 24° 302° (WNW) 1,158 4.4 -15.8°
Drops below altitude 10° 02:15:28 10° 358° (N) 1,843 4.9 -16.4°
Enters shadow 02:16:46 - 6° (N) 2,288 5.3 -16.7°
